timestamp,surface_pressure_avg,surface_temp_avg,battery_voltage,lat,long
2020-09-06 00:09:01+00:00,306.1914,17.59,12.81,47.84626,-54.09684
2020-09-06 00:19:01+00:00,312.3247,17.59,12.81,47.84626,-54.09684
2020-09-06 00:29:01+00:00,317.8864,17.59,12.81,47.84626,-54.09684
2020-09-06 00:39:01+00:00,323.743,17.58,12.81,47.84626,-54.09684
2020-09-06 00:49:01+00:00,330.98800000000006,17.58,12.81,47.84626,-54.09684
2020-09-06 00:59:01+00:00,334.5746,17.59,12.81,47.84626,-54.09684
2020-09-06 01:09:01+00:00,336.6664,17.6,12.81,47.84626,-54.09684
2020-09-06 01:19:01+00:00,340.7996,17.6,12.73,47.84626,-54.09684
2020-09-06 01:29:01+00:00,345.7646,17.6,12.73,47.84626,-54.09684
2020-09-06 01:39:01+00:00,346.6913,17.6,12.73,47.84626,-54.09684
2020-09-06 01:49:01+00:00,345.2645,17.6,12.73,47.84626,-54.09684
2020-09-06 01:59:01+00:00,345.9547,17.6,12.73,47.84626,-54.09684
2020-09-06 02:09:01+00:00,346.2447,17.6,12.73,47.84626,-54.09684
2020-09-06 02:19:01+00:00,343.8013,17.6,12.73,47.84626,-54.09684
2020-09-06 02:29:01+00:00,343.4813,17.58,12.73,47.84626,-54.09684
2020-09-06 02:39:01+00:00,342.848,17.59,12.73,47.84626,-54.09684
2020-09-06 02:49:01+00:00,337.9963,17.6,12.73,47.84626,-54.09684
2020-09-06 02:59:01+00:00,334.3964,17.6,12.73,47.84626,-54.09684
2020-09-06 03:09:01+00:00,333.5297,17.6,12.73,47.84626,-54.09684
2020-09-06 03:19:01+00:00,329.3247,17.6,12.65,47.84626,-54.09684
2020-09-06 03:29:01+00:00,323.0129,17.6,12.65,47.84626,-54.09684
2020-09-06 03:39:01+00:00,321.1263,17.59,12.65,47.84626,-54.09684
2020-09-06 03:49:01+00:00,319.4813,17.58,12.65,47.84626,-54.09684
2020-09-06 03:59:01+00:00,312.4046,17.59,12.65,47.84626,-54.09684
2020-09-06 04:09:01+00:00,304.1313,17.59,12.65,47.84626,-54.09684
2020-09-06 04:19:01+00:00,299.8297,17.59,12.65,47.84626,-54.09684
2020-09-06 04:29:01+00:00,296.9597,17.6,12.65,47.84626,-54.09684
2020-09-06 04:39:01+00:00,287.883,17.6,12.65,47.84626,-54.09684
2020-09-06 04:49:01+00:00,278.3364,17.6,12.65,47.84626,-54.09684
2020-09-06 04:59:01+00:00,272.6681,17.6,12.65,47.84626,-54.09684
2020-09-06 05:09:01+00:00,266.5698,17.6,12.65,47.84626,-54.09684
2020-09-06 05:19:01+00:00,255.4548,17.6,12.65,47.84626,-54.09684
2020-09-06 05:29:01+00:00,247.0631,17.6,12.65,47.84626,-54.09684
2020-09-06 05:39:01+00:00,241.493,17.6,12.65,47.84626,-54.09684
2020-09-06 05:49:01+00:00,232.7431,17.6,12.65,47.84626,-54.09684
2020-09-06 05:59:01+00:00,222.4431,17.6,12.65,47.84626,-54.09684
2020-09-06 06:09:01+00:00,215.1481,17.6,12.65,47.84626,-54.09684
2020-09-06 06:19:01+00:00,210.3648,17.6,12.65,47.84626,-54.09684
2020-09-06 06:29:01+00:00,203.4382,17.6,12.65,47.84626,-54.09684
2020-09-06 06:39:01+00:00,195.5298,17.6,12.65,47.84626,-54.09684
2020-09-06 06:49:01+00:00,188.6831,17.6,12.65,47.84626,-54.09684
2020-09-06 06:59:01+00:00,185.7131,17.6,12.65,47.84626,-54.09684
2020-09-06 07:09:01+00:00,186.0281,17.6,12.65,47.84626,-54.09684
2020-09-06 07:19:01+00:00,183.9364,17.6,12.65,47.84626,-54.09684
2020-09-06 07:29:01+00:00,182.6064,17.6,12.65,47.84626,-54.09684
2020-09-06 07:39:01+00:00,184.7332,17.6,12.65,47.84626,-54.09684
2020-09-06 07:49:01+00:00,185.1298,17.6,12.65,47.84626,-54.09684
2020-09-06 07:59:01+00:00,187.4915,17.6,12.65,47.84626,-54.09684
2020-09-06 08:09:01+00:00,193.0315,17.6,12.65,47.84626,-54.09684
2020-09-06 08:19:01+00:00,195.5731,17.59,12.65,47.84626,-54.09684
2020-09-06 08:29:01+00:00,197.3115,17.58,12.65,47.84626,-54.09684
2020-09-06 08:39:01+00:00,202.5881,17.59,12.65,47.84626,-54.09684
2020-09-06 08:49:01+00:00,208.7181,17.59,12.65,47.84626,-54.09684
2020-09-06 08:59:01+00:00,211.5014,17.59,12.65,47.84626,-54.09684
2020-09-06 09:09:01+00:00,213.7281,17.6,12.65,47.84626,-54.09684
2020-09-06 09:19:01+00:00,219.5214,17.6,12.57,47.84626,-54.09684
2020-09-06 09:29:01+00:00,225.7681,17.59,12.57,47.84626,-54.09684
2020-09-06 09:39:01+00:00,229.3914,17.58,12.57,47.84626,-54.09684
2020-09-06 09:49:01+00:00,231.9481,17.57,12.57,47.84626,-54.09684
2020-09-06 09:59:01+00:00,237.8881,17.5,12.57,47.84626,-54.09684
2020-09-06 10:09:01+00:00,242.6931,17.5,12.57,47.84626,-54.09684
2020-09-06 10:19:01+00:00,242.5448,17.5,13.6,47.84626,-54.09684
2020-09-06 10:29:01+00:00,245.4781,17.5,13.6,47.84626,-54.09684
2020-09-06 10:39:01+00:00,253.3681,17.5,13.6,47.84626,-54.09684
2020-09-06 10:49:01+00:00,256.7831,17.5,13.6,47.84626,-54.09684
2020-09-06 10:59:01+00:00,257.1231,17.5,13.6,47.84626,-54.09684
2020-09-06 11:09:01+00:00,264.0514,17.5,13.6,47.84626,-54.09684
2020-09-06 11:19:01+00:00,272.7931,17.4,14.32,47.84626,-54.09684
2020-09-06 11:29:01+00:00,275.7531,17.4,14.32,47.84626,-54.09684
2020-09-06 11:39:01+00:00,277.4897,17.4,14.32,47.84626,-54.09684
2020-09-06 11:49:01+00:00,284.743,17.4,14.32,47.84626,-54.09684
2020-09-06 11:59:01+00:00,291.7047,17.4,14.32,47.84626,-54.09684
2020-09-06 12:09:01+00:00,296.753,17.4,14.32,47.84626,-54.09684
2020-09-06 12:19:01+00:00,303.0347,17.38,14.4,47.84626,-54.09684
2020-09-06 12:29:01+00:00,312.1979,17.34,14.4,47.84626,-54.09684
2020-09-06 12:39:01+00:00,318.6063,17.35,14.4,47.84626,-54.09684
2020-09-06 12:49:01+00:00,322.8597,17.38,14.4,47.84626,-54.09684
2020-09-06 12:59:01+00:00,328.1562,17.39,14.4,47.84626,-54.09684
2020-09-06 13:09:01+00:00,332.8214,17.38,14.4,47.84626,-54.09684
2020-09-06 13:19:01+00:00,334.7962,17.36,14.48,47.84626,-54.09684
2020-09-06 13:29:01+00:00,337.1414,17.36,14.48,47.84626,-54.09684
2020-09-06 13:39:01+00:00,341.8696,17.33,14.48,47.84626,-54.09684
2020-09-06 13:49:01+00:00,344.4763,17.34,14.48,47.84626,-54.09684
2020-09-06 13:59:01+00:00,343.2996,17.34,14.48,47.84626,-54.09684
2020-09-06 14:09:01+00:00,342.5129,17.3,14.48,47.84626,-54.09684
2020-09-06 14:19:01+00:00,342.5513,17.3,14.48,47.84626,-54.09684
2020-09-06 14:29:01+00:00,342.1713,17.3,14.48,47.84626,-54.09684
2020-09-06 14:39:01+00:00,341.2296,17.3,14.48,47.84626,-54.09684
2020-09-06 14:49:01+00:00,338.7896,17.3,14.48,47.84626,-54.09684
2020-09-06 14:59:01+00:00,338.2630000000001,17.3,14.48,47.84626,-54.09684
2020-09-06 15:09:01+00:00,336.7413,17.34,14.48,47.84626,-54.09684
2020-09-06 15:19:01+00:00,331.3013,17.38,14.32,47.84626,-54.09684
2020-09-06 15:29:01+00:00,327.9963,17.39,14.32,47.84626,-54.09684
2020-09-06 15:39:01+00:00,325.2447,17.4,14.32,47.84626,-54.09684
2020-09-06 15:49:01+00:00,323.3546,17.4,14.32,47.84626,-54.09684
2020-09-06 15:59:01+00:00,318.598,17.4,14.32,47.84626,-54.09684
2020-09-06 16:09:01+00:00,314.7697,17.4,14.32,47.84626,-54.09684
2020-09-06 16:19:01+00:00,312.388,17.4,14.24,47.84626,-54.09684
2020-09-06 16:29:01+00:00,306.9514,17.4,14.24,47.84626,-54.09684
2020-09-06 16:39:01+00:00,298.8497,17.4,14.24,47.84626,-54.09684
2020-09-06 16:49:01+00:00,293.5413,17.4,14.24,47.84626,-54.09684
2020-09-06 16:59:01+00:00,289.8563,17.4,14.24,47.84626,-54.09684
2020-09-06 17:09:01+00:00,281.4963,17.45,14.24,47.84626,-54.09684
2020-09-06 17:19:01+00:00,272.0248,17.59,14.16,47.84626,-54.09684
2020-09-06 17:29:01+00:00,265.8297,17.5,14.16,47.84626,-54.09684
2020-09-06 17:39:01+00:00,258.7597,17.5,14.16,47.84626,-54.09684
2020-09-06 17:49:01+00:00,250.0514,17.5,14.16,47.84626,-54.09684
2020-09-06 17:59:01+00:00,240.8198,17.59,14.16,47.84626,-54.09684
2020-09-06 18:09:01+00:00,231.1897,17.65,14.16,47.84626,-54.09684
2020-09-06 18:19:01+00:00,226.2014,17.69,14.0,47.84626,-54.09684
2020-09-06 18:29:01+00:00,221.5464,17.7,14.0,47.84626,-54.09684
2020-09-06 18:39:01+00:00,213.4247,17.7,14.0,47.84626,-54.09684
2020-09-06 18:49:01+00:00,207.1531,17.7,14.0,47.84626,-54.09684
2020-09-06 18:59:01+00:00,205.0864,17.7,14.0,47.84626,-54.09684
2020-09-06 19:09:01+00:00,197.8648,17.7,14.0,47.84626,-54.09684
2020-09-06 19:19:01+00:00,188.7047,17.7,13.68,47.84626,-54.09684
2020-09-06 19:29:01+00:00,189.7014,17.7,13.68,47.84626,-54.09684
2020-09-06 19:39:01+00:00,189.9481,17.7,13.68,47.84626,-54.09684
2020-09-06 19:49:01+00:00,183.2281,17.7,13.68,47.84626,-54.09684
2020-09-06 19:59:01+00:00,180.3048,17.73,13.68,47.84626,-54.09684
2020-09-06 20:09:01+00:00,183.0898,17.79,13.68,47.84626,-54.09684
2020-09-06 20:19:01+00:00,183.8331,17.8,13.53,47.84626,-54.09684
2020-09-06 20:29:01+00:00,182.4615,17.8,13.53,47.84626,-54.09684
2020-09-06 20:39:01+00:00,184.9065,17.8,13.53,47.84626,-54.09684
2020-09-06 20:49:01+00:00,192.7964,17.8,13.53,47.84626,-54.09684
2020-09-06 20:59:01+00:00,197.5298,17.87,13.53,47.84626,-54.09684
2020-09-06 21:09:01+00:00,199.5064,17.9,13.53,47.84626,-54.09684
2020-09-06 21:19:01+00:00,206.2098,17.9,13.37,47.84626,-54.09684
2020-09-06 21:29:01+00:00,212.3765,17.9,13.37,47.84626,-54.09684
2020-09-06 21:39:01+00:00,214.0948,17.9,13.37,47.84626,-54.09684
2020-09-06 21:49:01+00:00,217.1414,17.9,13.37,47.84626,-54.09684
2020-09-06 21:59:01+00:00,222.1198,17.9,13.37,47.84626,-54.09684
2020-09-06 22:09:01+00:00,225.3231,18.0,13.37,47.84626,-54.09684
2020-09-06 22:19:01+00:00,228.5147,18.0,13.05,47.84626,-54.09684
2020-09-06 22:29:01+00:00,233.5447,17.9,13.05,47.84626,-54.09684
2020-09-06 22:39:01+00:00,238.5297,17.9,13.05,47.84626,-54.09684
2020-09-06 22:49:01+00:00,241.3431,18.0,13.05,47.84626,-54.09684
2020-09-06 22:59:01+00:00,243.4531,18.0,13.05,47.84626,-54.09684
2020-09-06 23:09:01+00:00,246.2647,18.0,13.05,47.84626,-54.09684
2020-09-06 23:19:01+00:00,250.7047,17.96,12.81,47.84626,-54.09684
2020-09-06 23:29:01+00:00,254.9014,18.0,12.81,47.84626,-54.09684
2020-09-06 23:39:01+00:00,259.0614,18.0,12.81,47.84626,-54.09684
2020-09-06 23:49:01+00:00,266.3281,17.98,12.81,47.84626,-54.09684
2020-09-06 23:59:01+00:00,273.9564,17.98,12.81,47.84626,-54.09684
